Location: Davayat
(45.9471°N, 3.1105°E)
Time: 18:08:40
(UTC+00:00)

Envisat - Pass Details

Date: 01 December 2020
Orbit: 764 x 766 km, 98.1° (Epoch: 18 January)

Event Time Altitude Azimuth Distance (km) Brightness Sun altitude
Rises 16:34:52 0° 161° (SSE) 3,220 6.3 -5.5°
Reaches altitude 10° 16:37:10 10° 160° (SSE) 2,298 5.6 -5.9°
Maximum altitude 16:42:14 79° 74° (ENE) 787 3.0 -6.7°
Drops below altitude 10° 16:47:20 10° 349° (N) 2,315 5.4 -7.5°
Sets 16:49:39 0° 348° (NNW) 3,246 6.1 -7.9°
